DLH8LN LIRF-EDDF

Flight info

Callsign DLH8LN
Flight time 1h 29m
Altitude 36000
Route SOSIV5AXSOVAN1E/25 SOVAN DCT AMTEL DCT BORMI DCT OZE DCT NAXAV DCT UNIMI L12 MOGTI Q163 OLASO/N0436F320 Q163 HAFUN/N0393F240 Q163 ETASA T163 SPESA SPESA5B
Aircraft A321/M-SDE3FGHIRWY/LB1

Departure

Time 2026-05-04 15:04
Airport Rome–Fiumicino Leonardo da Vinci International Airport (LIRF)

Arrival

Time 2026-05-04 16:33
Airport Frankfurt Main Airport (EDDF)
Time Latitude Longitude Altitude Speed Heading
2026-05-04 14:32 41.79617 12.25945 21 ft 0 kts 295°
2026-05-04 14:54 41.79613 12.25956 21 ft 2 kts 295°
2026-05-04 14:54 41.79606 12.25975 21 ft 2 kts 308°
2026-05-04 14:55 41.79595 12.25987 21 ft 2 kts 333°
2026-05-04 14:55 41.79580 12.25993 21 ft 2 kts 358°
2026-05-04 14:55 41.79566 12.25991 21 ft 1 kts 20°
2026-05-04 14:55 41.79560 12.25987 21 ft 1 kts 27°
2026-05-04 14:56 41.79558 12.25986 22 ft 0 kts 25°
2026-05-04 14:59 41.79599 12.26012 21 ft 13 kts 25°
2026-05-04 14:59 41.79700 12.26074 20 ft 19 kts 27°
2026-05-04 14:59 41.79845 12.26045 18 ft 11 kts 296°
2026-05-04 15:00 41.79879 12.25947 19 ft 11 kts 294°
2026-05-04 15:00 41.79921 12.25864 18 ft 9 kts 347°
2026-05-04 15:00 41.79983 12.25893 17 ft 9 kts 24°
2026-05-04 15:01 41.80170 12.26008 16 ft 20 kts 25°
2026-05-04 15:01 41.80311 12.26096 16 ft 23 kts 25°
2026-05-04 15:01 41.80457 12.26183 16 ft 20 kts 21°
2026-05-04 15:01 41.80543 12.26305 14 ft 16 kts 73°
2026-05-04 15:02 41.80581 12.26451 13 ft 16 kts 69°
2026-05-04 15:02 41.80622 12.26601 11 ft 17 kts 68°
2026-05-04 15:02 41.80669 12.26761 10 ft 18 kts 69°
2026-05-04 15:02 41.80714 12.26925 10 ft 19 kts 70°
2026-05-04 15:03 41.80783 12.27044 10 ft 14 kts 356°
2026-05-04 15:03 41.80879 12.27007 11 ft 18 kts 338°
2026-05-04 15:03 41.80938 12.26857 10 ft 26 kts 246°
2026-05-04 15:03 41.80802 12.26368 14 ft 91 kts 249°
2026-05-04 15:04 41.80506 12.25300 14 ft 152 kts 249°
2026-05-04 15:04 41.80127 12.23858 373 ft 169 kts 248°
2026-05-04 15:04 41.79735 12.22410 1067 ft 169 kts 246°
2026-05-04 15:04 41.79295 12.20963 1749 ft 169 kts 244°
2026-05-04 15:05 41.79008 12.19457 2189 ft 174 kts 274°
2026-05-04 15:05 41.79579 12.18010 2509 ft 185 kts 313°
2026-05-04 15:05 41.80482 12.16803 2964 ft 185 kts 310°
2026-05-04 15:05 41.81317 12.15480 3314 ft 191 kts 306°
2026-05-04 15:06 41.82171 12.14034 3583 ft 204 kts 305°
2026-05-04 15:06 41.83075 12.12497 3840 ft 218 kts 306°
2026-05-04 15:06 41.84059 12.10914 4250 ft 226 kts 314°
2026-05-04 15:07 41.87061 12.09219 4940 ft 253 kts 345°
2026-05-04 15:07 41.88812 12.08632 5229 ft 270 kts 346°
2026-05-04 15:07 41.90710 12.07982 5586 ft 286 kts 345°
2026-05-04 15:07 41.92639 12.07292 6161 ft 292 kts 345°
2026-05-04 15:08 41.94602 12.06590 6825 ft 294 kts 347°
2026-05-04 15:08 41.96614 12.06092 7507 ft 296 kts 352°
2026-05-04 15:08 41.98663 12.05838 8230 ft 296 kts 354°
2026-05-04 15:08 42.00712 12.05650 8929 ft 296 kts 354°
2026-05-04 15:09 42.02757 12.05466 9627 ft 295 kts 353°
2026-05-04 15:09 42.04784 12.05275 10284 ft 295 kts 353°
2026-05-04 15:09 42.06853 12.05072 10704 ft 305 kts 353°
2026-05-04 15:10 42.11294 12.04629 11218 ft 333 kts 353°
2026-05-04 15:10 42.13637 12.04399 11621 ft 340 kts 353°
2026-05-04 15:10 42.18338 12.03578 12688 ft 342 kts 341°
2026-05-04 15:11 42.20608 12.02632 13228 ft 343 kts 339°
2026-05-04 15:11 42.22869 12.01634 13735 ft 346 kts 339°
2026-05-04 15:11 42.25180 12.00630 14250 ft 349 kts 339°
2026-05-04 15:11 42.27493 11.99652 14751 ft 351 kts 340°
2026-05-04 15:12 42.29846 11.98675 15280 ft 353 kts 340°
2026-05-04 15:12 42.32193 11.97712 15773 ft 354 kts 340°
2026-05-04 15:12 42.34558 11.96747 16256 ft 356 kts 340°
2026-05-04 15:12 42.36929 11.95783 16715 ft 358 kts 341°
2026-05-04 15:13 42.39343 11.94804 17170 ft 361 kts 341°
2026-05-04 15:13 42.41733 11.93835 17614 ft 363 kts 341°
2026-05-04 15:13 42.44147 11.92858 18037 ft 365 kts 341°
2026-05-04 15:13 42.46602 11.91865 18471 ft 367 kts 341°
2026-05-04 15:14 42.49056 11.90869 18891 ft 369 kts 341°
2026-05-04 15:14 42.51508 11.89875 19284 ft 372 kts 341°
2026-05-04 15:14 42.53992 11.88866 19685 ft 374 kts 341°
2026-05-04 15:14 42.56519 11.87839 20082 ft 376 kts 341°
2026-05-04 15:15 42.59016 11.86823 20488 ft 378 kts 341°
2026-05-04 15:15 42.61523 11.85802 20867 ft 380 kts 341°
2026-05-04 15:15 42.64082 11.84760 21246 ft 382 kts 341°
2026-05-04 15:16 42.69181 11.82681 21957 ft 386 kts 341°
2026-05-04 15:16 42.71766 11.81625 22316 ft 388 kts 341°
2026-05-04 15:16 42.76921 11.79514 22972 ft 392 kts 341°
2026-05-04 15:17 42.79541 11.78441 23296 ft 394 kts 341°
2026-05-04 15:17 42.84828 11.76276 23960 ft 397 kts 341°
2026-05-04 15:17 42.87467 11.75191 24288 ft 399 kts 340°
2026-05-04 15:18 42.90102 11.74110 24611 ft 400 kts 340°
2026-05-04 15:18 42.92761 11.73017 24937 ft 401 kts 340°
2026-05-04 15:18 42.95446 11.71909 25267 ft 402 kts 340°
2026-05-04 15:19 43.00784 11.69706 25876 ft 404 kts 340°
2026-05-04 15:19 43.03474 11.68594 26150 ft 405 kts 339°
2026-05-04 15:19 43.08890 11.66351 26712 ft 407 kts 339°
2026-05-04 15:20 43.11628 11.65215 26984 ft 408 kts 339°
2026-05-04 15:20 43.14331 11.64093 27241 ft 410 kts 339°
2026-05-04 15:20 43.17059 11.62961 27497 ft 411 kts 339°
2026-05-04 15:20 43.19834 11.61879 27746 ft 413 kts 341°
2026-05-04 15:21 43.22628 11.61022 27962 ft 417 kts 345°
2026-05-04 15:21 43.25529 11.60387 28199 ft 421 kts 348°
2026-05-04 15:21 43.31335 11.59488 28672 ft 424 kts 349°
2026-05-04 15:22 43.34268 11.59055 28875 ft 426 kts 349°
2026-05-04 15:22 43.37236 11.58619 29109 ft 427 kts 349°
2026-05-04 15:22 43.43119 11.57740 29526 ft 430 kts 349°
2026-05-04 15:23 43.46104 11.57295 29751 ft 431 kts 349°
2026-05-04 15:23 43.49071 11.56850 29974 ft 431 kts 349°
2026-05-04 15:23 43.52040 11.56402 30173 ft 433 kts 349°
2026-05-04 15:23 43.55050 11.55944 30339 ft 435 kts 349°
2026-05-04 15:24 43.61073 11.55032 30713 ft 438 kts 349°
2026-05-04 15:24 43.67155 11.54111 31104 ft 441 kts 349°
2026-05-04 15:25 43.70203 11.53647 31321 ft 441 kts 349°
2026-05-04 15:25 43.73223 11.53190 31555 ft 441 kts 349°
2026-05-04 15:25 43.76262 11.52730 31809 ft 441 kts 349°
2026-05-04 15:26 43.82337 11.51805 32317 ft 440 kts 349°
2026-05-04 15:26 43.85408 11.51334 32560 ft 439 kts 349°
2026-05-04 15:26 43.91463 11.50408 33063 ft 438 kts 349°
2026-05-04 15:27 43.94452 11.49950 33294 ft 438 kts 349°
2026-05-04 15:27 44.00496 11.49028 33760 ft 437 kts 349°
2026-05-04 15:28 44.06523 11.48101 34198 ft 436 kts 349°
2026-05-04 15:28 44.09547 11.47635 34412 ft 435 kts 349°
2026-05-04 15:28 44.15588 11.46703 34741 ft 437 kts 349°
2026-05-04 15:29 44.18623 11.46233 34885 ft 438 kts 349°
2026-05-04 15:30 44.30745 11.44357 35448 ft 440 kts 349°
2026-05-04 15:30 44.39868 11.42941 35875 ft 441 kts 349°
2026-05-04 15:31 44.45976 11.41990 36051 ft 442 kts 349°
2026-05-04 15:31 44.49020 11.41516 36057 ft 442 kts 349°
2026-05-04 15:32 44.64312 11.39121 36044 ft 443 kts 350°
2026-05-04 15:34 44.79602 11.36717 36036 ft 444 kts 349°
2026-05-04 15:34 44.88788 11.35266 36033 ft 443 kts 350°
2026-05-04 15:35 44.97993 11.33806 36021 ft 443 kts 349°
2026-05-04 15:36 45.07197 11.32342 36021 ft 444 kts 349°
2026-05-04 15:36 45.13349 11.31361 36021 ft 446 kts 349°
2026-05-04 15:37 45.19492 11.30379 36021 ft 446 kts 349°
2026-05-04 15:37 45.25684 11.29387 36022 ft 446 kts 349°
2026-05-04 15:38 45.31838 11.28401 36025 ft 445 kts 349°
2026-05-04 15:38 45.37968 11.27414 36031 ft 447 kts 349°
2026-05-04 15:39 45.44150 11.26417 35880 ft 447 kts 349°
2026-05-04 15:39 45.50345 11.25416 36009 ft 449 kts 349°
2026-05-04 15:40 45.53453 11.24912 36029 ft 449 kts 349°
2026-05-04 15:40 45.59669 11.23902 36047 ft 450 kts 350°
2026-05-04 15:41 45.65855 11.22900 36049 ft 450 kts 350°
2026-05-04 15:41 45.72070 11.21887 36060 ft 450 kts 350°
2026-05-04 15:42 45.78314 11.20866 36069 ft 450 kts 350°
2026-05-04 15:42 45.84509 11.19849 36074 ft 450 kts 350°
2026-05-04 15:43 45.90730 11.18828 36070 ft 451 kts 350°
2026-05-04 15:43 45.96978 11.17902 36075 ft 453 kts 353°
2026-05-04 15:44 46.03299 11.17844 36079 ft 456 kts
2026-05-04 15:44 46.09598 11.18851 36082 ft 459 kts
2026-05-04 15:45 46.15870 11.20804 36082 ft 460 kts 11°
2026-05-04 15:45 46.22054 11.22942 36088 ft 460 kts 11°
2026-05-04 15:46 46.28282 11.25083 36089 ft 460 kts 11°
2026-05-04 15:46 46.34481 11.27202 36079 ft 460 kts 11°
2026-05-04 15:47 46.40683 11.29343 36082 ft 459 kts
2026-05-04 15:47 46.47007 11.30198 36065 ft 455 kts 353°
2026-05-04 15:47 46.50085 11.29509 36052 ft 451 kts 342°
2026-05-04 15:48 46.53035 11.28052 36057 ft 448 kts 334°
2026-05-04 15:48 46.61581 11.22536 36086 ft 448 kts 332°
2026-05-04 15:49 46.67228 11.18847 36125 ft 447 kts 333°
2026-05-04 15:49 46.72897 11.15161 36146 ft 448 kts 333°
2026-05-04 15:50 46.78609 11.11441 36165 ft 449 kts 333°
2026-05-04 15:50 46.84282 11.07743 36171 ft 449 kts 333°
2026-05-04 15:51 46.89957 11.03988 36172 ft 448 kts 332°
2026-05-04 15:51 46.95609 11.00188 36175 ft 449 kts 333°
2026-05-04 15:52 47.01301 10.96480 36169 ft 450 kts 333°
2026-05-04 15:52 47.07004 10.92766 36169 ft 451 kts 333°
2026-05-04 15:53 47.12762 10.88997 36168 ft 450 kts 333°
2026-05-04 15:53 47.18430 10.85271 36150 ft 450 kts 333°
2026-05-04 15:54 47.24134 10.81512 36132 ft 450 kts 333°
2026-05-04 15:54 47.29823 10.77751 36107 ft 450 kts 333°
2026-05-04 15:55 47.35516 10.73979 36100 ft 450 kts 333°
2026-05-04 15:55 47.41269 10.70335 36091 ft 451 kts 335°
2026-05-04 15:56 47.47073 10.66963 36085 ft 452 kts 336°
2026-05-04 15:56 47.52951 10.63547 36069 ft 452 kts 335°
2026-05-04 15:57 47.58786 10.60134 36053 ft 452 kts 335°
2026-05-04 15:57 47.64596 10.56724 36047 ft 452 kts 335°
2026-05-04 15:58 47.70423 10.53291 36028 ft 452 kts 336°
2026-05-04 15:58 47.76252 10.49851 36009 ft 452 kts 335°
2026-05-04 15:59 47.82121 10.46375 35997 ft 452 kts 335°
2026-05-04 15:59 47.87925 10.42929 35993 ft 452 kts 336°
2026-05-04 16:00 47.93789 10.39449 35991 ft 453 kts 336°
2026-05-04 16:00 47.99617 10.35977 35991 ft 453 kts 336°
2026-05-04 16:01 48.05479 10.32472 35983 ft 453 kts 335°
2026-05-04 16:01 48.11340 10.28958 35978 ft 453 kts 335°
2026-05-04 16:02 48.17128 10.25237 35974 ft 451 kts 330°
2026-05-04 16:03 48.25131 10.17999 35969 ft 447 kts 320°
2026-05-04 16:03 48.29983 10.12258 35967 ft 446 kts 317°
2026-05-04 16:04 48.34757 10.06420 35964 ft 445 kts 317°
2026-05-04 16:04 48.41974 9.97602 35641 ft 443 kts 317°
2026-05-04 16:05 48.44355 9.94692 35290 ft 438 kts 317°
2026-05-04 16:05 48.46706 9.91813 34779 ft 437 kts 318°
2026-05-04 16:05 48.51380 9.86087 33417 ft 436 kts 317°
2026-05-04 16:06 48.53724 9.83206 32649 ft 438 kts 317°
2026-05-04 16:06 48.60030 9.75439 30576 ft 442 kts 317°
2026-05-04 16:07 48.63129 9.71470 29825 ft 436 kts 315°
2026-05-04 16:07 48.69867 9.62554 28568 ft 427 kts 315°
2026-05-04 16:08 48.72105 9.59590 28296 ft 427 kts 315°
2026-05-04 16:08 48.78742 9.50796 27483 ft 423 kts 315°
2026-05-04 16:09 48.83136 9.44957 26941 ft 419 kts 316°
2026-05-04 16:09 48.87485 9.39168 26403 ft 416 kts 316°
2026-05-04 16:10 48.92074 9.33793 25860 ft 417 kts 323°
2026-05-04 16:11 48.99734 9.27632 25071 ft 414 kts 330°
2026-05-04 16:11 49.02302 9.25699 24774 ft 413 kts 330°
2026-05-04 16:12 49.09918 9.19909 23568 ft 405 kts 330°
2026-05-04 16:12 49.17405 9.14340 22297 ft 399 kts 338°
2026-05-04 16:13 49.22881 9.13306 21421 ft 398 kts
2026-05-04 16:13 49.28324 9.14132 20581 ft 393 kts
2026-05-04 16:14 49.33725 9.14963 19737 ft 388 kts
2026-05-04 16:14 49.39042 9.15732 18909 ft 383 kts
2026-05-04 16:15 49.46905 9.16856 17688 ft 375 kts
2026-05-04 16:16 49.52078 9.17597 16868 ft 371 kts
2026-05-04 16:16 49.59677 9.18689 15653 ft 365 kts
2026-05-04 16:17 49.64689 9.19620 14815 ft 362 kts 16°
2026-05-04 16:18 49.70432 9.26593 13607 ft 353 kts 48°
2026-05-04 16:18 49.72175 9.29215 13113 ft 351 kts 37°
2026-05-04 16:19 49.78709 9.32581 12062 ft 322 kts 10°
2026-05-04 16:19 49.82962 9.33456 11597 ft 301 kts 348°
2026-05-04 16:20 49.88643 9.29989 10435 ft 291 kts 335°
2026-05-04 16:20 49.92346 9.27637 9642 ft 287 kts 336°
2026-05-04 16:21 49.97827 9.24215 8545 ft 277 kts 336°
2026-05-04 16:22 50.01327 9.22034 7900 ft 269 kts 336°
2026-05-04 16:22 50.06337 9.18911 7148 ft 248 kts 337°
2026-05-04 16:23 50.11108 9.15928 6138 ft 244 kts 337°
2026-05-04 16:24 50.16749 9.11081 5021 ft 226 kts 297°
2026-05-04 16:25 50.17012 9.06358 5033 ft 226 kts 257°
2026-05-04 16:26 50.15227 8.97434 4966 ft 212 kts 250°
2026-05-04 16:26 50.13696 8.90990 4976 ft 212 kts 249°
2026-05-04 16:27 50.12647 8.86718 4933 ft 204 kts 249°
2026-05-04 16:28 50.11218 8.80892 4180 ft 183 kts 249°
2026-05-04 16:28 50.09914 8.75535 3429 ft 172 kts 250°
2026-05-04 16:29 50.08371 8.69154 2566 ft 150 kts 251°
2026-05-04 16:30 50.07257 8.64594 1931 ft 149 kts 250°
2026-05-04 16:31 50.06534 8.61596 1608 ft 148 kts 253°
2026-05-04 16:31 50.05472 8.57162 915 ft 145 kts 250°
2026-05-04 16:32 50.04431 8.52754 370 ft 142 kts 250°
2026-05-04 16:33 50.03994 8.50895 358 ft 56 kts 250°
2026-05-04 16:33 50.03756 8.50261 342 ft 15 kts 219°
2026-05-04 16:34 50.03627 8.50242 342 ft 9 kts 101°
2026-05-04 16:34 50.03640 8.50336 344 ft 10 kts 68°
2026-05-04 16:35 50.03785 8.50935 359 ft 29 kts 70°
2026-05-04 16:35 50.04034 8.51973 357 ft 33 kts 70°
2026-05-04 16:36 50.04100 8.52260 359 ft 26 kts 71°
2026-05-04 16:36 50.04216 8.52741 360 ft 21 kts 70°
2026-05-04 16:37 50.04339 8.53242 353 ft 28 kts 70°
2026-05-04 16:37 50.04393 8.53521 354 ft 24 kts 79°
2026-05-04 16:37 50.04432 8.54032 356 ft 24 kts 83°
2026-05-04 16:38 50.04446 8.54525 355 ft 21 kts 107°
2026-05-04 16:39 50.04326 8.54762 353 ft 0 kts 149°
2026-05-04 16:39 50.04224 8.54823 353 ft 9 kts 163°
2026-05-04 16:40 50.04109 8.54887 352 ft 10 kts 159°
2026-05-04 16:40 50.04015 8.54942 350 ft 8 kts 160°
2026-05-04 16:41 50.03872 8.55023 348 ft 4 kts 150°
2026-05-04 16:41 50.03917 8.55397 351 ft 19 kts 69°
2026-05-04 16:42 50.04073 8.56051 354 ft 21 kts 69°
2026-05-04 16:43 50.04165 8.56436 359 ft 17 kts 70°
2026-05-04 16:43 50.04222 8.56673 362 ft 0 kts 68°
2026-05-04 16:43 50.04222 8.56672 362 ft 0 kts 68°
2026-05-04 16:44 50.04350 8.57207 369 ft 20 kts 69°
2026-05-04 16:45 50.04458 8.57659 368 ft 22 kts 70°
2026-05-04 16:46 50.04591 8.58223 377 ft 16 kts 70°
2026-05-04 16:46 50.04682 8.58597 369 ft 20 kts 66°
2026-05-04 16:47 50.04764 8.58926 363 ft 6 kts 50°
2026-05-04 16:47 50.04812 8.58923 364 ft 4 kts 340°
2026-05-04 16:48 50.04848 8.58903 365 ft 0 kts 340°